Location: Foligno
(42.9600°N, 12.7050°E)
Time: 21:15:03
(UTC+01:00)

ISS - Pass Details

Date: 17 January 2018
Orbit: 402 x 407 km, 51.6° (Epoch: 17 January)

Event Time Altitude Azimuth Distance (km) Brightness Sun altitude
Exits shadow 05:19:47 17° 156° (SSE) 1,118 -1.3 -24.6°
Drops below altitude 10° 05:20:41 10° 149° (SSE) 1,456 -0.6 -24.5°
Sets 05:22:49 0° 142° (SE) 2,313 0.7 -24.1°
